Regional Weather Roundup
Issued by NWS

Home | Current Version | Previous Version | Graphics & Text | Print | Product List | Glossary On
Versions: 1 2 3 4 5 6 7 8 9 10 11 12 13 14 15 16 17 18 19 20 21 22 23 24 25 26 27 28 29 30 31 32 33 34 35 36 37 38 39 40 41 42 43 44 45 46 47 48 49 50
000
ASUS43 KLMK 191410
RWRKY
KENTUCKY REGIONAL WEATHER ROUNDUP
NATIONAL WEATHER SERVICE LOUISVILLE KY
900 AM EST FRI JAN 19 2018

NOTE "FAIR" INDICATES FEW OR NO CLOUDS BELOW 12,000 FEET
WITH NO SIGNIFICANT WEATHER AND/OR OBSTRUCTIONS TO VISIBILITY.

KYZ001>023-026-027-061>063-070>075-191500-
WESTERN AND SOUTH CENTRAL KENTUCKY

CITY           SKY/WX    TMP DP  RH WIND       PRES   REMARKS
PADUCAH        FAIR      23  13  65 S8        30.23F WCI  14
HENDERSON      FAIR      23  15  71 S14       30.21F WCI  11
OWENSBORO      FAIR      21  13  71 S8        30.24S WCI  11
HOPKINSVILLE   FAIR      20  11  66 SE5       30.27S WCI  14
BOWLING GREEN  FAIR      23  13  65 S7        30.29S WCI  15
GLASGOW        FAIR      24  13  62 S3        30.29R
$$

KYZ024-025-028>034-038-045-046-053-191500-
NORTH CENTRAL KENTUCKY

CITY           SKY/WX    TMP DP  RH WIND       PRES   REMARKS
LOUISVILLE/SDF FAIR      26  13  57 S7        30.23S WCI  18
LOUISVILLE/LOU FAIR      23  14  68 S6        30.24S WCI  16
FORT KNOX      CLEAR     22  11  62 S12       30.24R WCI  11
$$

KYZ035>037-039>044-047>052-055>060-089>105-191500-
NORTHEAST KENTUCKY

CITY           SKY/WX    TMP DP  RH WIND       PRES   REMARKS
LEXINGTON      FAIR      24  12  60 S12       30.24R WCI  13
COVINGTON      FAIR      22  13  68 S13       30.16S WCI  10
FRANKFORT      FAIR      23  11  60 SW13      30.22R WCI  11
$$

KYZ054-064>069-076>088-106>120-191500-
SOUTHEAST KENTUCKY

CITY           SKY/WX    TMP DP  RH WIND       PRES   REMARKS
JACKSON        FAIR      24  10  55 SW5       30.25S WCI  18
LONDON         FAIR      14  10  84 CALM      30.29S
SOMERSET       FAIR      19  12  73 W8        30.31F WCI   9
MIDDLESBORO    FAIR      13  11  91 CALM      30.34F
MONTICELLO     FAIR      20  16  84 CALM      30.32S
$$





USA.gov is the U.S. government's official web portal to all federal, state and local government web resources and services.